Location: Quaker Farms
(41.4276°N, 73.1557°W)
Time: 19:49:11
(UTC+00:00)

S-56A Canister/Altair - Pass Details

Date: 23 June 2021
Orbit: 631 x 2501 km, 38.9° (Epoch: 30 July)

Event Time Altitude Azimuth Distance (km) Brightness Sun altitude
Rises 12:51:14 0° 275° (W) 3,008 10.1 36.7°
Reaches altitude 10° 12:53:29 10° 266° (W) 2,190 9.5 37.1°
Maximum altitude 12:58:02 36° 200° (SSW) 1,315 8.9 38.0°
Drops below altitude 10° 13:04:06 10° 136° (SE) 2,945 11.2 39.1°
Sets 13:07:37 0° 129° (SE) 4,213 11.9 39.7°
